[[{"header":{"parameterUnit":"m.s-1","parameterCategory":1,"la1":30.2991,"la2":30.254,"lo1":-89.0895,"lo2":-89.0444,"dy":0.0017,"dx":0.0017,"nx":28,"ny":28,"refTime":"2023-07-23T09:00:00:Z","depth":0,"parameterNumber":2,"parameterNumberName":"U-component_of_WINDS"},"data":[0,0,0,0,0,0,0,0,0,0,0,0,0,0,0,0,0,0,0,0,0,0,0,0,0,0,0,0,0,0,0,0,0,0,0,0,0,0,0,0,0,0,0,0,0,0,0,0,0,0,0,0,0,0,0,0,0,0,-2.7433,-2.7433,0,-2.7467,-2.7468,-2.7468,-2.7451,-2.745,-2.745,-2.7449,-2.7483,-2.7485,-2.7487,0,0,0,0,0,0,0,0,0,0,0,0,0,-2.7352,-2.7353,-2.7433,-2.7433,-2.7434,-2.7467,-2.7468,-2.7468,-2.7452,-2.745,-2.7449,-2.7448,-2.7483,-2.7485,-2.7487,0,0,0,0,0,0,0,0,0,0,0,0,0,-2.7387,-2.7354,-2.7433,-2.7429,-2.7429,-2.7467,-2.7468,-2.7468,-2.7452,-2.745,-2.7449,-2.7448,-2.7482,-2.7485,-2.7487,-2.753,0,0,-2.7495,-2.7496,0,0,0,0,0,0,0,0,-2.7385,-2.739,-2.7429,-2.743,-2.743,-2.7454,-2.7452,-2.7489,-2.7452,-2.7443,-2.7449,-2.7447,-2.7474,-2.7478,-2.7487,-2.7532,-2.7533,-2.7495,-2.7497,-2.7498,-2.7499,0,0,0,0,0,0,0,-2.7382,-2.7388,-2.7446,-2.743,-2.743,-2.7426,-2.743,-2.7459,-2.7466,-2.7444,-2.7443,-2.7447,-2.7474,-2.7485,-2.7488,-2.7534,-2.7495,-2.7498,-2.7499,-2.75,-2.7616,-2.7617,0,0,0,0,0,0,-2.738,-2.7386,-2.7445,-2.7447,-2.7404,-2.7429,-2.7432,-2.7447,-2.7466,-2.7467,-2.7448,-2.7446,-2.7481,-2.7485,-2.7489,-2.754,-2.7498,-2.7501,-2.7502,-2.7614,-2.7616,-2.7618,0,0,0,0,0,0,-2.7379,-2.7386,-2.7444,-2.7417,-2.7424,-2.7431,-2.7448,-2.7449,-2.7459,-2.7469,-2.747,-2.7457,-2.748,-2.7485,-2.752,-2.7541,-2.7502,-2.7504,-2.7612,-2.7615,-2.7617,-2.7643,0,0,0,0,0,0,-2.7376,-2.7385,-2.7401,-2.7417,-2.7425,-2.7475,-2.745,-2.745,-2.7464,-2.7461,-2.7478,-2.7479,-2.7479,-2.7516,-2.7523,-2.7544,-2.7506,-2.7611,-2.7613,-2.7616,-2.7641,-2.7646,-2.7651,0,0,0,0,0,-2.7373,-2.7407,-2.7402,-2.741,-2.7446,-2.7476,-2.748,-2.748,-2.7465,-2.7482,-2.7488,-2.7479,-2.7538,-2.752,-2.7527,-2.755,-2.7609,-2.7613,-2.7616,-2.7638,-2.7645,-2.7651,0,0,0,0,0,0,-2.7393,-2.7409,-2.7404,-2.7444,-2.7459,-2.7473,-2.7493,-2.7487,-2.7506,-2.7503,-2.7502,-2.7506,-2.7542,-2.7549,-2.7529,-2.7592,-2.7571,-2.7576,-2.7586,-2.7593,-2.7598,-2.7595,-2.7508,0,0,0,0,0,-2.7402,-2.7425,-2.7438,-2.7472,-2.748,-2.7486,-2.7499,-2.7497,-2.7512,-2.7519,-2.7528,-2.7543,-2.7565,-2.7579,-2.76,-2.7642,-2.7645,-2.7661,-2.7666,-2.7671,-2.7675,-2.7698,-2.7705,-2.7629,-2.7629,-2.7629,0,0,-2.7421,-2.7432,-2.7447,-2.7476,-2.7488,-2.7512,-2.7491,-2.7517,-2.7535,-2.7522,-2.7556,-2.7563,-2.758,-2.7619,-2.7636,-2.7626,-2.7697,-2.7675,-2.7678,-2.768,-2.7702,-2.7709,-2.7715,-2.7631,-2.7631,-2.763,0,0,-2.7467,-2.7478,-2.7508,-2.752,-2.7538,-2.7542,-2.7549,-2.7565,-2.7569,-2.7603,-2.7594,-2.7616,-2.7654,-2.7666,-2.7677,-2.773,-2.7722,-2.7737,-2.7764,-2.7786,-2.7792,-2.7798,-2.7816,-2.7823,-2.7741,-2.7741,-2.7741,0,-2.7487,-2.7524,-2.7524,-2.7551,-2.7564,-2.7555,-2.7585,-2.7597,-2.762,-2.763,-2.7618,-2.7666,-2.7677,-2.7718,-2.7731,-2.7741,-2.7749,-2.7734,-2.7791,-2.7797,-2.7802,-2.7819,-2.7826,-2.7743,-2.7743,-2.7742,-2.7742,0,-2.7548,-2.7574,-2.7595,-2.7619,-2.7635,-2.7663,-2.7668,-2.7684,-2.7682,-2.7687,-2.7722,-2.7734,-2.7758,-2.7768,-2.7766,-2.781,-2.7803,-2.7791,-2.777,-2.7811,-2.7827,-2.7834,-2.7745,-2.7745,-2.7744,-2.7744,0,0,-2.7606,-2.7631,-2.7639,-2.765,-2.7669,-2.7689,-2.7717,-2.7741,-2.7755,-2.7772,-2.7795,-2.7828,-2.7819,-2.7831,-2.7831,-2.7851,-2.7891,-2.7837,-2.7837,-2.7846,-2.7941,-2.7948,-2.7956,-2.7887,-2.7888,-2.7889,-2.7939,0,-2.7654,-2.7703,-2.7705,-2.7751,-2.7774,-2.7766,-2.7791,-2.7806,-2.7812,-2.7833,-2.7839,-2.7863,-2.7848,-2.7856,-2.7875,-2.7882,-2.791,-2.7879,-2.7908,-2.7909,-2.7903,-2.7965,-2.7973,-2.802,-2.7946,-2.7947,-2.7948,0,-2.7715,-2.7735,-2.7783,-2.78,-2.781,-2.7832,-2.7854,-2.7874,-2.7891,-2.7894,-2.7909,-2.7906,-2.7935,-2.7914,-2.7954,-2.7933,-2.7945,-2.7951,-2.7952,-2.7954,-2.793,-2.7968,-2.8034,-2.8041,-2.7958,-2.7957,-2.7956,0,-2.7752,-2.7791,-2.7825,-2.7834,-2.7855,-2.7871,-2.788,-2.7896,-2.791,-2.793,-2.7939,-2.7962,-2.7974,-2.7991,-2.7994,-2.7979,-2.8035,-2.8014,-2.8038,-2.8038,-2.8049,-2.8048,-2.8118,-2.8058,-2.8058,-2.8058,-2.8058,0,-2.7804,-2.7834,-2.7842,-2.7862,-2.7896,-2.7897,-2.793,-2.7938,-2.7953,-2.7975,-2.797,-2.7991,-2.7994,-2.8015,-2.8018,-2.8051,-2.8057,-2.806,-2.806,-2.806,-2.8059,-2.8067,-2.8063,-2.806,-2.806,-2.8059,-2.8059,0,-2.7851,-2.7857,-2.7894,-2.7911,-2.7916,-2.794,-2.7954,-2.7974,-2.798,-2.8008,-2.8015,-2.8024,-2.805,-2.8055,-2.8085,-2.8087,-2.8126,-2.8123,-2.812,-2.8119,-2.8143,-2.814,-2.8219,-2.823,-2.8164,-2.8165,-2.8166,0,-2.7883,-2.7906,-2.7926,-2.7941,-2.7951,-2.7975,-2.799,-2.7993,-2.8009,-2.803,-2.8048,-2.8073,-2.8093,-2.8134,-2.8143,-2.8166,-2.8164,-2.819,-2.8167,-2.8166,-2.8163,-2.8162,-2.8164,-2.8194,-2.8194,-2.8195,-2.8196,0,-2.794,-2.7942,-2.7964,-2.7987,-2.8006,-2.8024,-2.8041,-2.8054,-2.8059,-2.8077,-2.8103,-2.8119,-2.815,-2.8175,-2.8199,-2.8208,-2.8203,-2.8203,-2.821,-2.8209,-2.8206,-2.8208,-2.8131,-2.8201,-2.82,-2.82,-2.82,-2.8199,-2.798,-2.8,-2.8017,-2.8042,-2.8056,-2.8073,-2.8092,-2.8101,-2.8123,-2.8149,-2.815,-2.8178,-2.8196,-2.8226,-2.8238,-2.826,-2.8252,-2.8262,-2.8264,-2.8266,-2.8268,-2.8204,-2.8265,-2.8264,-2.8264,-2.8264,-2.8264,0,-2.8036,-2.8047,-2.807,-2.8095,-2.8115,-2.8109,-2.8128,-2.8145,-2.817,-2.8187,-2.8207,-2.8238,-2.8262,-2.8274,-2.8298,-2.8314,-2.8312,-2.832,-2.8318,-2.8321,-2.8274,-2.8266,-2.8321,-2.8321,-2.8321,-2.8321,-2.8321,-2.8321,-2.8067,-2.8101,-2.8106,-2.8146,-2.8157,-2.8186,-2.8197,-2.8213,-2.8226,-2.826,-2.8281,-2.8289,-2.8304,-2.8329,-2.8351,-2.8354,-2.8363,-2.8372,-2.8374,-2.833,-2.8324,-2.8318,-2.831,-2.8374,-2.8374,-2.8418,-2.8419,-2.8419]},{"header":{"parameterUnit":"m.s-1","parameterCategory":1,"la1":30.2991,"la2":30.254,"lo1":-89.0895,"lo2":-89.0444,"dy":0.0017,"dx":0.0017,"nx":28,"ny":28,"refTime":"2023-07-23T09:00:00:Z","depth":0,"parameterNumber":3,"parameterNumberName":"V-component_of_WINDS"},"data":[0,0,0,0,0,0,0,0,0,0,0,0,0,0,0,0,0,0,0,0,0,0,0,0,0,0,0,0,0,0,0,0,0,0,0,0,0,0,0,0,0,0,0,0,0,0,0,0,0,0,0,0,0,0,0,0,0,0,-0.7429,-0.7429,0,-0.7393,-0.7392,-0.7392,-0.7357,-0.7356,-0.7356,-0.7355,-0.7317,-0.7317,-0.7316,0,0,0,0,0,0,0,0,0,0,0,0,0,-0.7468,-0.7467,-0.7429,-0.7429,-0.7428,-0.7393,-0.7392,-0.7392,-0.7357,-0.7356,-0.7356,-0.7355,-0.7317,-0.7317,-0.7316,0,0,0,0,0,0,0,0,0,0,0,0,0,-0.7443,-0.7467,-0.7429,-0.7407,-0.7404,-0.7393,-0.7392,-0.7392,-0.7357,-0.7356,-0.7356,-0.7355,-0.7318,-0.7317,-0.7316,-0.7324,0,0,-0.7313,-0.7313,0,0,0,0,0,0,0,0,-0.7444,-0.7442,-0.741,-0.7408,-0.7406,-0.7379,-0.7392,-0.7369,-0.7357,-0.7375,-0.7355,-0.7355,-0.7338,-0.7336,-0.733,-0.7322,-0.732,-0.7313,-0.7313,-0.7312,-0.7312,0,0,0,0,0,0,0,-0.7446,-0.7443,-0.7415,-0.741,-0.7407,-0.7398,-0.7394,-0.7387,-0.7361,-0.7373,-0.7371,-0.7367,-0.7337,-0.7331,-0.7329,-0.732,-0.7313,-0.7312,-0.7312,-0.7311,-0.7315,-0.7316,0,0,0,0,0,0,-0.7451,-0.7445,-0.7416,-0.7414,-0.7424,-0.7398,-0.7393,-0.7388,-0.7361,-0.7356,-0.7367,-0.7365,-0.7333,-0.733,-0.7327,-0.7334,-0.7312,-0.7311,-0.7311,-0.7315,-0.7315,-0.7316,0,0,0,0,0,0,-0.7452,-0.7449,-0.7417,-0.7428,-0.7424,-0.7398,-0.7392,-0.7388,-0.7382,-0.7356,-0.7351,-0.7367,-0.7332,-0.7329,-0.7325,-0.7333,-0.7311,-0.731,-0.7314,-0.7315,-0.7316,-0.7349,0,0,0,0,0,0,-0.7454,-0.745,-0.7453,-0.7429,-0.7423,-0.7416,-0.7393,-0.7387,-0.7381,-0.7377,-0.7354,-0.735,-0.7331,-0.7326,-0.7324,-0.7331,-0.7309,-0.7313,-0.7314,-0.7315,-0.7347,-0.7351,-0.7354,0,0,0,0,0,-0.7455,-0.7464,-0.7453,-0.745,-0.7427,-0.7417,-0.7413,-0.7392,-0.7381,-0.7384,-0.7367,-0.735,-0.7332,-0.7326,-0.7323,-0.733,-0.7312,-0.7314,-0.7315,-0.7345,-0.735,-0.7354,0,0,0,0,0,0,-0.749,-0.746,-0.7448,-0.745,-0.7436,-0.7411,-0.7413,-0.7398,-0.7387,-0.7385,-0.7359,-0.7354,-0.7353,-0.7341,-0.7335,-0.7336,-0.732,-0.7321,-0.7344,-0.7348,-0.7351,-0.7354,-0.7309,0,0,0,0,0,-0.7497,-0.7492,-0.7466,-0.747,-0.7464,-0.744,-0.7435,-0.7419,-0.7404,-0.7398,-0.7381,-0.7367,-0.7357,-0.7352,-0.7342,-0.7345,-0.7339,-0.7348,-0.7351,-0.7354,-0.7356,-0.7355,-0.7359,-0.7321,-0.7321,-0.7321,0,0,-0.7513,-0.7497,-0.7495,-0.7476,-0.7464,-0.7458,-0.7435,-0.743,-0.7426,-0.7397,-0.7392,-0.7379,-0.7361,-0.7361,-0.7359,-0.7351,-0.7365,-0.7356,-0.7359,-0.7358,-0.7357,-0.7361,-0.7364,-0.7322,-0.7322,-0.7321,0,0,-0.754,-0.7527,-0.7528,-0.7516,-0.7497,-0.7481,-0.7481,-0.7458,-0.7448,-0.7443,-0.7421,-0.7415,-0.74,-0.7388,-0.738,-0.74,-0.7384,-0.7398,-0.7417,-0.7416,-0.7419,-0.7422,-0.7429,-0.7432,-0.7399,-0.7399,-0.7399,0,-0.7562,-0.7553,-0.753,-0.7527,-0.7519,-0.7493,-0.7493,-0.7482,-0.7462,-0.7456,-0.7447,-0.7427,-0.7413,-0.7409,-0.7413,-0.7408,-0.7407,-0.74,-0.7421,-0.7423,-0.7425,-0.7431,-0.7434,-0.7401,-0.74,-0.74,-0.74,0,-0.7581,-0.7575,-0.7578,-0.7559,-0.7551,-0.755,-0.7526,-0.7521,-0.7506,-0.7491,-0.7485,-0.7467,-0.7453,-0.7451,-0.7437,-0.7444,-0.7439,-0.7426,-0.7409,-0.7431,-0.7436,-0.7439,-0.7403,-0.7403,-0.7402,-0.7402,0,0,-0.7629,-0.7596,-0.7597,-0.7588,-0.7565,-0.756,-0.7557,-0.7543,-0.7539,-0.7525,-0.7521,-0.7508,-0.7495,-0.7486,-0.747,-0.747,-0.7486,-0.7456,-0.7455,-0.7462,-0.7493,-0.7503,-0.7506,-0.7475,-0.7476,-0.7476,-0.7494,0,-0.7651,-0.7644,-0.7623,-0.7623,-0.7616,-0.7591,-0.7588,-0.7573,-0.7559,-0.7551,-0.7534,-0.7525,-0.7509,-0.7503,-0.7502,-0.7485,-0.7492,-0.7483,-0.7471,-0.7471,-0.7477,-0.7509,-0.752,-0.7538,-0.7496,-0.7497,-0.7497,0,-0.7676,-0.7664,-0.7663,-0.7639,-0.7636,-0.7634,-0.7619,-0.7612,-0.7594,-0.7583,-0.7573,-0.7555,-0.7549,-0.7534,-0.7525,-0.7519,-0.7513,-0.7504,-0.7504,-0.7502,-0.7486,-0.7508,-0.7544,-0.7547,-0.75,-0.75,-0.75,0,-0.7711,-0.7694,-0.7691,-0.7683,-0.7656,-0.7655,-0.7644,-0.7625,-0.7618,-0.7605,-0.7599,-0.7586,-0.7578,-0.7567,-0.7546,-0.7537,-0.754,-0.7522,-0.753,-0.7531,-0.7532,-0.7532,-0.7567,-0.7528,-0.7528,-0.7528,-0.7528,0,-0.7738,-0.7738,-0.7706,-0.7704,-0.7703,-0.7679,-0.7678,-0.7664,-0.7648,-0.7642,-0.7619,-0.7614,-0.7586,-0.7578,-0.756,-0.7556,-0.7553,-0.7543,-0.7539,-0.7545,-0.7546,-0.7541,-0.7539,-0.7529,-0.7529,-0.7529,-0.7528,0,-0.7776,-0.7755,-0.775,-0.7724,-0.7718,-0.7718,-0.7696,-0.7693,-0.7676,-0.7669,-0.7666,-0.7641,-0.7629,-0.7607,-0.7589,-0.7578,-0.7577,-0.7569,-0.7583,-0.758,-0.7589,-0.7588,-0.7621,-0.7624,-0.7584,-0.7584,-0.7584,0,-0.7795,-0.7795,-0.7769,-0.7763,-0.7753,-0.7745,-0.7737,-0.7712,-0.7705,-0.7684,-0.7684,-0.7671,-0.7659,-0.7642,-0.7621,-0.7608,-0.7599,-0.7611,-0.7597,-0.7603,-0.7599,-0.7599,-0.7598,-0.7615,-0.7615,-0.7616,-0.7616,0,-0.783,-0.782,-0.781,-0.7796,-0.7787,-0.7775,-0.7761,-0.7758,-0.773,-0.7723,-0.7711,-0.7702,-0.7684,-0.7671,-0.7654,-0.7642,-0.7624,-0.7621,-0.7622,-0.7629,-0.7637,-0.7632,-0.7592,-0.762,-0.762,-0.762,-0.762,-0.7619,-0.7859,-0.7857,-0.7839,-0.7828,-0.7815,-0.7803,-0.7798,-0.7781,-0.7771,-0.7755,-0.7741,-0.773,-0.7711,-0.7687,-0.7675,-0.7666,-0.7657,-0.7659,-0.7659,-0.766,-0.7663,-0.7638,-0.7663,-0.7663,-0.7662,-0.7662,-0.7662,0,-0.7893,-0.788,-0.787,-0.7852,-0.7843,-0.7827,-0.7811,-0.7805,-0.7796,-0.778,-0.7769,-0.7755,-0.7742,-0.772,-0.7705,-0.7702,-0.7694,-0.7699,-0.7699,-0.7696,-0.7671,-0.7672,-0.7706,-0.7706,-0.7706,-0.7706,-0.7706,-0.7706,-0.791,-0.7905,-0.7892,-0.7881,-0.7867,-0.7857,-0.7849,-0.7837,-0.7824,-0.781,-0.7799,-0.7785,-0.7766,-0.775,-0.7737,-0.7731,-0.7726,-0.7734,-0.7725,-0.7702,-0.7698,-0.7694,-0.7695,-0.7733,-0.7733,-0.7751,-0.7751,-0.7751]}]]